Hourly Data Report for August 15, 2022

OTTAWA INTL A
ONTARIO
Current Station Operator: NAVCAN

45°19'00.000" N
75°40'00.000" W
114.90 m
6106001
71628
YOW

Download Data

Hourly Data (August 2022)
Hourly Data Report for August 15, 2022
TIME
LST
Temp Definition
°C
Dew Point Definition
°C
Rel Hum Definition
%
Precip. Amount Definition
mm

Wind Dir Definition
10's deg

Wind Spd Definition
km/h
Visibility Definition
km
Stn Press Definition
kPa
Hmdx Definition


Wind Chill Definition


Weather Definition


00:00 16.9 10.7 67   33 6 24.1 100.34     LegendNANA
01:00 16.0 11.2 73   1 3 24.1 100.31     Mainly Clear
02:00 14.4 11.4 82   5 5 24.1 100.31     LegendNANA
03:00 12.6 11.4 92   16 10 24.1 100.32     LegendNANA
04:00 11.6 10.2 91   36 3 24.1 100.29     Mainly Clear
05:00 12.9 11.4 91   25 3 24.1 100.29     LegendNANA
06:00 14.4 11.9 85   33 4 24.1 100.34     LegendNANA
07:00 18.0 13.4 74   36 5 24.1 100.35     Mainly Clear
08:00 20.2 14.8 71   36 7 24.1 100.37     LegendNANA
09:00 22.2 15.1 63   2 7 24.1 100.37 26   LegendNANA
10:00 23.9 13.5 52   33 5 24.1 100.38 27   Mainly Clear
11:00 25.2 11.2 41   36 2 24.1 100.36 27   LegendNANA
12:00 26.6 13.4 43   8 9 24.1 100.32 30   LegendNANA
13:00 26.9 11.9 39   8 9 24.1 100.29 29   Mostly Cloudy
14:00 26.2 12.0 41   15 5 24.1 100.28 28   LegendNANA
15:00 25.7 12.3 43   34 7 24.1 100.25 28   LegendNANA
16:00 26.2 11.7 40   5 4 24.1 100.24 28   Mostly Cloudy
17:00 25.5 12.3 43   35 13 24.1 100.25 28   LegendNANA
18:00 24.5 14.4 53   5 14 24.1 100.28 28   LegendNANA
19:00 22.3 14.2 60   7 11 24.1 100.33 26   Mostly Cloudy
20:00 22.1 13.2 57   36 8 24.1 100.39 25   LegendNANA
21:00 21.4 14.0 63   31 8 24.1 100.41 25   LegendNANA
22:00 21.4 13.4 60   36 12 24.1 100.42     Mostly Cloudy
23:00 20.5 14.0 66   2 10 24.1 100.43     LegendNANA

Notes on Data Quality.

Legend

  • E = Estimated
  • M = Missing
  • NA = Not Available*
  • [empty] = Indicates an unobserved value
Date modified: